Back to catalog

STARLINK-31767

AliveCommunicationsVLEO
NORAD 59605·PAYLOAD·🇺🇸 United States

Launched Apr 28, 2024 from Cape Canaveral Space Force Station

Loading…

Next Passes (next 24 hours)

TLE

FreshSource: CelesTrak SupGP

Epoch: Sep 14, 2026, 21:33 UTC

1 59605C 24080E   26257.89840278  .00063403  00000+0  22966-2 0  2576
2 59605  43.0042  49.5451 0001396 277.5884 222.4671 15.27544860    15

Track STARLINK-31767 in real time with AllMySat

Download on the App Store